Regional Weather Roundup
Issued by NWS

Home | Current Version | Previous Version | Text Only | Print | Product List | Glossary Off
Versions: 1 2 3 4 5 6 7 8 9 10 11 12 13 14 15 16 17 18 19 20 21 22 23 24 25 26 27 28 29 30 31 32 33 34 35 36 37 38 39 40 41 42 43 44 45 46 47 48 49 50

000
ASUS43 KLOT 280009
RWRIL

ILLINOIS REGIONAL WEATHER ROUNDUP
NATIONAL WEATHER SERVICE CHICAGO/ROMEOVILLE IL
700 PM CDT SAT MAY 27 2017

NOTE: "FAIR" INDICATES FEW OR NO CLOUDS BELOW 12,000 FEET WITH NO
SIGNIFICANT WEATHER AND/OR OBSTRUCTIONS TO VISIBILITY.

* THESE STATIONS ARE NOT UNDER NWS QUALITY CONTROL. THEY ALSO MAY NOT
  REPORT WEATHER SUCH AS PRECIPITATION OR FOG.

ILZ001-002-007-009-015-016-024-280100-
NORTHWEST ILLINOIS

CITY           SKY/WX    TMP DP  RH WIND       PRES   REMARKS
MOLINE         CLOUDY    73  62  68 N5        29.82S
6HR MIN TEMP:  71; 6HR MAX TEMP:  78;

STERLING*      CLOUDY    72  65  78 CALM      29.85R
SAVANNA*       CLOUDY    71  60  70 NW5       29.86R
$$

ILZ003-004-008-010-011-017-018-280100-
NORTH CENTRAL ILLINOIS

CITY           SKY/WX    TMP DP  RH WIND       PRES   REMARKS
ROCKFORD       CLOUDY    75  60  59 CALM      29.86R
6HR MIN TEMP:  73; 6HR MAX TEMP:  80;

FREEPORT*      CLOUDY    69  62  78 CALM      29.87S
ROCHELLE*      CLOUDY    73  64  72 SE6       29.85S
DE KALB*       CLOUDY    73  62  69 S6        29.86S
PERU*          CLOUDY    74  61  63 SE3       29.84F
$$

ILZ005-006-012>014-019>023-280100-
NORTHEAST ILLINOIS

CITY           SKY/WX    TMP DP  RH WIND       PRES   REMARKS
CHICAGO-OHARE  PTSUNNY   70  54  56 E9        29.85S
6HR MIN TEMP:  70; 6HR MAX TEMP:  78;

CHICAGO-MIDWAY PTSUNNY   70  55  59 E9        29.85S
6HR MIN TEMP:  70; 6HR MAX TEMP:  75;

AURORA         CLOUDY    75  62  64 W3        29.85R
6HR MIN TEMP:  73; 6HR MAX TEMP:  79;

LANSING*       SUNNY     67  59  77 NE6       29.87S
JOLIET*        PTSUNNY   77  62  59 CALM      29.85R
WAUKEGAN       SUNNY     64  52  64 SE7       29.85F
6HR MIN TEMP:  64; 6HR MAX TEMP:  70;

DUPAGE AIRPORT MOSUNNY   72  60  66 E8        29.85R
6HR MIN TEMP:  71; 6HR MAX TEMP:  78;

KANKAKEE*      CLOUDY    77  59  54 CALM      29.85S
WHEELING       SUNNY     68  57  68 SE6       29.87S
6HR MIN TEMP:  68; 6HR MAX TEMP:  74;

MORRIS*        LGT RAIN  76  59  56 CALM      29.84R
ROMEOVILLE*    CLOUDY    75  62  64 CALM      29.85R
$$

LMZ740>746-280100-
SOUTHERN LAKE MICHIGAN

STATION/POSITION SKY/WX   TEMP    WIND        PRES    VSBY  WAVE
                          AIR SEA DIR/SP/G                  HT/PER
                          (F)     (DEG/KT/KT) (MB)    (MI)  (FT/S)
SOUTHERN BUOY              55 52   70/  4/  4 1011.4F         0
WILMETTE HARBOR            53 54                N/A           0
HARRISON CRIB              57      80/  5/  6   N/A
BURNHAM HARBOR             57      CALM  /  3   N/A
CALUMET HARBOR             56      50/  6/  7 1011.0R
BURNS HARBOR               59      70/  6/  7 1012.5R
MICHIGAN CITY              57      20/  1/  2   N/A
MICHIGAN CITY 6N           58 57   40/  2/  2   N/A           1
ST. JOSEPH                 59 59   40/  6/  8 1011.7          1/ 2
$$

ILZ025>027-034>036-040-047-049-050-058-095>099-280100-
WEST-CENTRAL ILLINOIS

CITY           SKY/WX    TMP DP  RH WIND       PRES   REMARKS
QUINCY         CLOUDY    73  63  70 N6        29.76R
GALESBURG*     CLOUDY    72  64  74 E3        29.78F
MACOMB*        CLOUDY    73  65  78 NE6       29.81S
JACKSONVILLE*  CLOUDY    72  64  75 SE21G32   29.68F
PITTSFIELD*    CLOUDY    70  64  82 SE7       29.71R
$$

ILZ028>032-037-038-041>044-048-051>054-059>061-280100-
CENTRAL ILLINOIS

CITY           SKY/WX    TMP DP  RH WIND       PRES   REMARKS
PONTIAC        MOSUNNY   76  67  73 E3        29.84F
BLOOMINGTON    CLOUDY    74  61  63 SE8       29.83F
DECATUR        CLOUDY    75  63  66 SE5       29.84F
PEORIA         CLOUDY    75  64  68 E8        29.80F
6HR MIN TEMP:  73; 6HR MAX TEMP:  78;

LACON*         CLOUDY    74  64  71 CALM      29.81F
LINCOLN*       PTSUNNY   78  62  57 S8        29.81F HX  80
SPRINGFIELD    CLOUDY    78  63  59 S12       29.81F HX  80
6HR MIN TEMP:  78; 6HR MAX TEMP:  82;

TAYLORVILLE    PTSUNNY   76  64  66 SW8       29.85S
6HR MIN TEMP:  73; 6HR MAX TEMP:  78;

$$

ILZ033-039-045-046-055>057-062-063-280100-
EAST-CENTRAL ILLINOIS

CITY           SKY/WX    TMP DP  RH WIND       PRES   REMARKS
CHAMPAIGN      CLOUDY    72  63  73 E6        29.84F
RANTOUL*       PTSUNNY   75  66  74 E3        29.85F
MATTOON        CLOUDY    74  67  78 E3        29.82F
PARIS*         CLOUDY    73  65  77 CALM      29.85S
$$

ILZ079-100>102-280100-
SOUTHWEST ILLINOIS

CITY           SKY/WX    TMP DP  RH WIND       PRES   REMARKS
ALTON          CLOUDY    63  61  94 S14       29.86F
BELLEVILLE     LGT RAIN  65  61  86 NW9       29.90F
CAHOKIA*       LGT RAIN  67  60  78 E13       29.83F
SPARTA*        RAIN      64  60  85 NW7       29.95F
$$

ILZ064>066-069>071-074>076-080>082-084>086-088>090-092>094-280100-
SOUTH-CENTRAL ILLINOIS

CITY           SKY/WX    TMP DP  RH WIND       PRES   REMARKS
CARBONDALE     TSTM      65  64  97 NW15G26   29.99R
6HR MIN TEMP:  65; 6HR MAX TEMP:  84; 6HR PCP:  0.28;

CAIRO*         TSTM      65  61  86 S3        29.92F
EFFINGHAM*     CLOUDY    76  68  76 W6        29.86R
MT. VERNON     LGT RAIN  71  65  81 W12G28    29.93R
CENTRALIA*     LGT RAIN  71  65  82 W30G39    29.89R
SALEM*         CLOUDY    74  63  69 W22G38    29.89R
METROPOLIS*    TSTM      65  62  89 NW10G16   29.92R
$$

ILZ067-068-072-073-078-083-087-091-280100-
SOUTHEAST ILLINOIS

CITY           SKY/WX    TMP DP  RH WIND       PRES   REMARKS
LAWRENCEVILLE  CLOUDY    78  66  66 NE6       29.82R HX  80
FLORA*         CLOUDY    76  67  73 W8        29.86R
FAIRFIELD*     CLOUDY    73  59  61 SW8       29.88R
HARRISBURG*    LGT RAIN  67  63  86 W35G47    29.92R
ROBINSON*      CLOUDY    76  66  72 N6        29.82F
CARMI*         CLOUDY    71  61  70 W9        29.87R
$$

ABBREVIATIONS USED IN REMARKS
   TC - TEMPERATURE IN CELSIUS
  WCI - WIND CHILL INDEX
   HX - HEAT INDEX
  VSB - VISIBILITY
$$





USA.gov is the U.S. government's official web portal to all federal, state and local government web resources and services.